Russellville, AR

11:55 PM CDT on October 23, 2019 (GMT -0500)
Russellville Regional

Weather History for KRUE - August, 2019

Change the Weather History Date:

Wednesday, August 28, 2019

  Actual Average (KHOT) Record (KHOT)
Temperature  
Mean Temperature 78 °F -  
Max Temperature 87 °F 94 °F 106 °F (1954)
Min Temperature 69 °F 67 °F 55 °F (1967)
Cooling Degree Days 12    
Growing Degree Days 28 (Base 50)    
Moisture  
Dew Point 65 °F    
Average Humidity 71    
Maximum Humidity 93    
Minimum Humidity 49    
Precipitation  
Precipitation 0.00 in - - ()
Sea Level Pressure  
Sea Level Pressure 30.05 in    
Wind  
Wind Speed 2 mph (ESE)    
Max Wind Speed 7 mph    
Max Gust Speed -    
Visibility 10 miles    
Events      
Averages and records for this station are not official NWS values.
T = Trace of Precipitation, MM = Missing Value Source: NWS Daily Summary

Daily Weather History Graph

Daily Weather History Graph

Search for Another Location

Airport or City:

Astronomy

Aug. 28, 2019 Rise Set
Actual Time 6:41 AM CDT 7:44 PM CDT
Civil Twilight 6:15 AM CDT 8:11 PM CDT
Nautical Twilight 5:44 AM CDT 8:42 PM CDT
Astronomical Twilight 5:12 AM CDT 9:14 PM CDT
Moon 4:21 AM CDT (8/28) 6:51 PM CDT (8/28)
Length of Visible Light 13h 55m
Length of Day
13h 03m
Waning Crescent, 4% of the Moon is Illuminated
Aug 28
Waning Crescent
Aug 30
New
Sep 5
First Quarter
Sep 13
Full
Sep 21
Last Quarter

Hourly Weather History & Observations

Time (CDT) Temp. Heat Index Dew Point Humidity Pressure Visibility Wind Dir Wind Speed Gust Speed Precip Events Conditions
12:53 AM 73.0 °F - 69.1 °F 87% 30.02 in 10.0 mi Calm Calm - N/A   Clear
1:53 AM 72.0 °F - 66.9 °F 84% 30.02 in 10.0 mi NW 3.5 mph - N/A   Clear
2:53 AM 70.0 °F - 68.0 °F 93% 30.03 in 10.0 mi Calm Calm - N/A   Clear
3:53 AM 69.1 °F - 66.9 °F 93% 30.03 in 10.0 mi Calm Calm - N/A   Clear
4:53 AM 69.1 °F - 66.0 °F 90% 30.04 in 10.0 mi Calm Calm - N/A   Clear
5:53 AM 70.0 °F - 66.9 °F 90% 30.04 in 10.0 mi Calm Calm - N/A   Overcast
6:53 AM 69.1 °F - 66.9 °F 93% 30.06 in 10.0 mi Calm Calm - N/A   Scattered Clouds
7:53 AM 71.1 °F - 68.0 °F 90% 30.09 in 10.0 mi Calm Calm - N/A   Clear
8:53 AM 73.9 °F - 64.9 °F 73% 30.09 in 10.0 mi West 3.5 mph - N/A   Overcast
10:53 AM 81.0 °F 81.7 °F 61.0 °F 50% 30.10 in 10.0 mi ESE 6.9 mph - N/A   Clear
11:53 AM 82.9 °F 84.0 °F 63.0 °F 51% 30.10 in 10.0 mi Variable 5.8 mph - N/A   Clear
12:53 PM 84.9 °F 86.1 °F 64.0 °F 49% 30.09 in 10.0 mi ENE 3.5 mph - N/A   Clear
1:53 PM 84.9 °F 86.1 °F 64.0 °F 49% 30.08 in 10.0 mi Variable 4.6 mph - N/A   Clear
2:53 PM 86.0 °F 87.6 °F 64.9 °F 49% 30.06 in 10.0 mi Variable 5.8 mph - N/A   Partly Cloudy
3:53 PM 86.0 °F 87.6 °F 64.9 °F 49% 30.04 in 10.0 mi South 4.6 mph - N/A   Clear
4:53 PM 86.0 °F 87.6 °F 64.9 °F 49% 30.02 in 10.0 mi ESE 4.6 mph - N/A   Clear
5:53 PM 84.9 °F 86.6 °F 64.9 °F 51% 30.02 in 10.0 mi Variable 3.5 mph - N/A   Clear
6:53 PM 82.9 °F 84.6 °F 64.9 °F 54% 30.01 in 10.0 mi Variable 3.5 mph - N/A   Clear
7:53 PM 75.0 °F - 66.9 °F 76% 30.01 in 10.0 mi East 3.5 mph - N/A   Clear
8:53 PM 72.0 °F - 64.0 °F 76% 30.02 in 10.0 mi Calm Calm - N/A   Clear
9:53 PM 71.1 °F - 63.0 °F 75% 30.04 in 10.0 mi Calm Calm - N/A   Clear
10:53 PM 70.0 °F - 64.0 °F 81% 30.06 in 10.0 mi Calm Calm - N/A   Clear
11:53 PM 69.1 °F - 64.9 °F 87% 30.06 in 10.0 mi Calm Calm - N/A   Mostly Cloudy